• In Kazakhstan
  • List of Countries
  • For 7 days
  • Water Temperature
  • Satellite Maps
  • Weather Map
  • News
  • Weather Widgets
  • user-avatar
    Login

    Hourly Weather Van

    Today, 22 November, Wednesday

    Time Temperature Precipitation Wind Pressure Humidity
    00:00 +4°C° 0.1 mm 3 mps 610 mmHg 82%
    01:00 +5°C° 0.4 mm 2 mps 610 mmHg 83%
    02:00 +5°C° 0.4 mm 2 mps 610 mmHg 84%
    03:00 +3°C° 0 mm 4 mps 610 mmHg 86%
    04:00 +3°C° 0.5 mm 4 mps 610 mmHg 88%
    05:00 +3°C° 0.5 mm 3 mps 610 mmHg 89%
    06:00 +2°C° 0.5 mm 3 mps 610 mmHg 91%
    07:00 +2°C° 0.4 mm 3 mps 611 mmHg 88%
    08:00 +2°C° 0.4 mm 3 mps 611 mmHg 86%
    09:00 +2°C° 0.4 mm 3 mps 611 mmHg 83%
    10:00 +3°C° 0.1 mm 3 mps 611 mmHg 79%
    11:00 +3°C° 0.1 mm 4 mps 611 mmHg 74%
    12:00 +3°C° 0.1 mm 4 mps 611 mmHg 69%
    13:00 +3°C° 0.1 mm 4 mps 611 mmHg 68%
    14:00 +1°C° 0.1 mm 4 mps 612 mmHg 66%
    15:00 +1°C° 0.1 mm 4 mps 612 mmHg 64%
    16:00 0°C° 0.1 mm 4 mps 612 mmHg 68%
    17:00 0°C° 0.1 mm 3 mps 612 mmHg 73%
    18:00 -1°C° 0.1 mm 3 mps 612 mmHg 77%
    19:00 -1°C° 0.3 mm 3 mps 613 mmHg 79%
    20:00 -1°C° 0.3 mm 3 mps 613 mmHg 82%
    21:00 -2°C° 0.3 mm 2 mps 613 mmHg 84%
    22:00 -2°C° 0.3 mm 3 mps 613 mmHg 85%
    23:00 -2°C° 0.3 mm 3 mps 613 mmHg 85%

    Tomorrow, 23 November, Thursday

    Time Temperature Precipitation Wind Pressure Humidity
    00:00 -2°C° 0.3 mm 3 mps 613 mmHg 86%
    01:00 -4°C° 0.2 mm 3 mps 613 mmHg 85%
    02:00 -4°C° 0.2 mm 3 mps 614 mmHg 85%
    03:00 -4°C° 0.2 mm 3 mps 614 mmHg 85%
    04:00 -5°C° 0.1 mm 3 mps 614 mmHg 85%
    05:00 -4°C° 0.1 mm 2 mps 614 mmHg 85%
    06:00 -4°C° 0.1 mm 2 mps 614 mmHg 85%
    07:00 -4°C° 0 mm 2 mps 615 mmHg 82%
    08:00 -4°C° 0 mm 3 mps 615 mmHg 79%
    09:00 -4°C° 0 mm 3 mps 615 mmHg 76%
    10:00 -2°C° 0 mm 3 mps 615 mmHg 69%
    11:00 -2°C° 0 mm 4 mps 615 mmHg 63%
    12:00 -1°C° 0 mm 4 mps 615 mmHg 56%
    13:00 -1°C° 0 mm 4 mps 615 mmHg 57%
    14:00 -1°C° 0 mm 4 mps 615 mmHg 58%
    15:00 -1°C° 0 mm 5 mps 614 mmHg 59%
    16:00 -2°C° 0 mm 4 mps 615 mmHg 65%
    17:00 -3°C° 0 mm 4 mps 615 mmHg 71%
    18:00 -4°C° 0 mm 4 mps 615 mmHg 77%
    19:00 -4°C° 0.1 mm 3 mps 615 mmHg 79%
    20:00 -4°C° 0.1 mm 3 mps 615 mmHg 81%
    21:00 -5°C° 0.1 mm 3 mps 615 mmHg 82%
    22:00 -5°C° 0.2 mm 3 mps 615 mmHg 84%
    23:00 -4°C° 0.2 mm 2 mps 615 mmHg 85%

    Day after tomorrow, 24 November, Friday

    Time Temperature Precipitation Wind Pressure Humidity
    00:00 -4°C° 0.2 mm 2 mps 615 mmHg 87%
    01:00 -4°C° 0.3 mm 2 mps 615 mmHg 87%
    02:00 -6°C° 0.3 mm 3 mps 615 mmHg 87%
    03:00 -6°C° 0.3 mm 3 mps 615 mmHg 87%
    04:00 -6°C° 0.3 mm 3 mps 615 mmHg 87%
    05:00 -6°C° 0.3 mm 3 mps 615 mmHg 88%
    06:00 -6°C° 0.3 mm 3 mps 615 mmHg 88%
    07:00 -6°C° 0.2 mm 3 mps 616 mmHg 85%
    08:00 -5°C° 0.2 mm 2 mps 616 mmHg 83%
    09:00 -4°C° 0.2 mm 2 mps 617 mmHg 81%
    10:00 -5°C° 0.2 mm 3 mps 617 mmHg 77%
    11:00 -5°C° 0.2 mm 3 mps 617 mmHg 73%
    12:00 -4°C° 0.2 mm 3 mps 617 mmHg 69%
    13:00 -5°C° 0.1 mm 3 mps 617 mmHg 69%
    14:00 -5°C° 0.1 mm 3 mps 617 mmHg 70%
    15:00 -5°C° 0.1 mm 3 mps 617 mmHg 71%
    16:00 -6°C° 0 mm 3 mps 617 mmHg 73%
    17:00 -6°C° 0 mm 2 mps 617 mmHg 76%
    18:00 -7°C° 0 mm 2 mps 617 mmHg 79%
    19:00 -8°C° 0 mm 2 mps 618 mmHg 80%
    20:00 -8°C° 0 mm 2 mps 618 mmHg 81%
    21:00 -8°C° 0 mm 2 mps 618 mmHg 82%
    22:00 -9°C° 0 mm 2 mps 618 mmHg 83%
    23:00 -9°C° 0 mm 2 mps 618 mmHg 84%

    25 November, Saturday

    Time Temperature Precipitation Wind Pressure Humidity
    00:00 -9°C° 0 mm 2 mps 618 mmHg 85%
    01:00 -9°C° 0 mm 2 mps 619 mmHg 85%
    02:00 -9°C° 0 mm 2 mps 619 mmHg 86%
    03:00 -9°C° 0 mm 2 mps 619 mmHg 86%
    04:00 -9°C° 0 mm 2 mps 619 mmHg 85%
    05:00 -9°C° 0 mm 2 mps 619 mmHg 84%
    06:00 -9°C° 0 mm 2 mps 620 mmHg 82%
    07:00 -8°C° 0 mm 2 mps 620 mmHg 79%
    08:00 -7°C° 0 mm 1 mps 621 mmHg 76%
    09:00 -6°C° 0 mm 1 mps 621 mmHg 73%
    10:00 -4°C° 0 mm 1 mps 621 mmHg 70%
    11:00 -3°C° 0 mm 1 mps 621 mmHg 66%
    12:00 -4°C° 0 mm 2 mps 621 mmHg 63%
    13:00 -2°C° 0 mm 1 mps 621 mmHg 64%
    14:00 -2°C° 0 mm 1 mps 621 mmHg 66%
    15:00 -2°C° 0 mm 1 mps 621 mmHg 68%
    16:00 -4°C° 0 mm 1 mps 621 mmHg 72%
    17:00 -6°C° 0 mm 1 mps 621 mmHg 76%
    18:00 -8°C° 0 mm 1 mps 621 mmHg 80%
    19:00 -8°C° 0 mm 1 mps 621 mmHg 77%
    20:00 -8°C° 0 mm 1 mps 622 mmHg 75%
    21:00 -9°C° 0 mm 2 mps 622 mmHg 73%
    22:00 -9°C° 0 mm 2 mps 622 mmHg 68%
    23:00 -9°C° 0 mm 2 mps 622 mmHg 64%

    26 November, Sunday

    Time Temperature Precipitation Wind Pressure Humidity
    00:00 -9°C° 0 mm 2 mps 622 mmHg 59%
    01:00 -9°C° 0 mm 2 mps 622 mmHg 56%
    02:00 -9°C° 0 mm 2 mps 622 mmHg 52%
    03:00 -9°C° 0 mm 2 mps 622 mmHg 48%
    04:00 -9°C° 0 mm 2 mps 622 mmHg 46%
    05:00 -9°C° 0 mm 2 mps 621 mmHg 44%
    06:00 -9°C° 0 mm 2 mps 621 mmHg 42%
    07:00 -8°C° 0 mm 2 mps 622 mmHg 43%
    08:00 -6°C° 0 mm 2 mps 622 mmHg 43%
    09:00 -5°C° 0 mm 2 mps 622 mmHg 44%
    10:00 -4°C° 0 mm 2 mps 622 mmHg 41%
    11:00 0°C° 0 mm 1 mps 622 mmHg 39%
    12:00 +2°C° 0 mm 1 mps 622 mmHg 37%
    13:00 +1°C° 0 mm 1 mps 621 mmHg 39%
    14:00 +1°C° 0 mm 1 mps 621 mmHg 42%
    15:00 +1°C° 0 mm 1 mps 621 mmHg 45%
    16:00 0°C° 0 mm 1 mps 621 mmHg 46%
    17:00 -2°C° 0 mm 1 mps 620 mmHg 47%
    18:00 -3°C° 0 mm 1 mps 620 mmHg 49%
    19:00 -6°C° 0 mm 2 mps 620 mmHg 49%
    20:00 -6°C° 0 mm 2 mps 621 mmHg 49%
    21:00 -6°C° 0 mm 2 mps 621 mmHg 50%
    22:00 -6°C° 0 mm 2 mps 621 mmHg 49%
    23:00 -7°C° 0 mm 2 mps 621 mmHg 48%

    27 November, Monday

    Time Temperature Precipitation Wind Pressure Humidity
    00:00 -7°C° 0 mm 2 mps 620 mmHg 47%
    01:00 -7°C° 0 mm 2 mps 620 mmHg 46%
    02:00 -7°C° 0 mm 2 mps 620 mmHg 44%
    03:00 -7°C° 0 mm 2 mps 620 mmHg 43%
    04:00 -7°C° 0 mm 2 mps 620 mmHg 41%
    05:00 -7°C° 0 mm 2 mps 620 mmHg 40%
    06:00 -7°C° 0 mm 2 mps 620 mmHg 38%
    07:00 -6°C° 0 mm 2 mps 621 mmHg 38%
    08:00 -5°C° 0 mm 2 mps 621 mmHg 39%
    09:00 -4°C° 0 mm 2 mps 622 mmHg 39%
    10:00 0°C° 0 mm 1 mps 622 mmHg 39%
    11:00 +2°C° 0 mm 1 mps 622 mmHg 39%
    12:00 +3°C° 0 mm 1 mps 621 mmHg 39%
    13:00 +3°C° 0 mm 1 mps 621 mmHg 40%
    14:00 +3°C° 0 mm 1 mps 621 mmHg 40%
    15:00 +3°C° 0 mm 1 mps 620 mmHg 41%
    16:00 +1°C° 0 mm 1 mps 620 mmHg 41%
    17:00 -1°C° 0 mm 1 mps 620 mmHg 41%
    18:00 -2°C° 0 mm 1 mps 620 mmHg 41%
    19:00 -3°C° 0 mm 1 mps 620 mmHg 40%
    20:00 -3°C° 0 mm 1 mps 620 mmHg 39%
    21:00 -3°C° 0 mm 1 mps 620 mmHg 38%
    22:00 -3°C° 0 mm 1 mps 620 mmHg 38%
    23:00 -3°C° 0 mm 1 mps 620 mmHg 37%
    Show more